"Pseudo-MPEC" for P10Hq2Z
Created 2018 Apr 18 16:18:06 UT using Find_Orb
Click here for an explanation of pseudo-MPECs
Astrometry: P10Hq2Z C2018 04 16x\
Astrometryj)*uW4!Xr(nj=P_t$3qEWYv6B^%%\aJeEEvZ!T4s
F51 P10Hq2Z C2018 04 166(c.X#(\jy'GYW]U;4QW^q#^m7_K2lSveS)!C\)jo:(JVD9-Vw$Y
F51 P10Hq2Z C2018 04 165Lpt(A-tN]u9jX:3:
redacted;wW08_4H^MUn%4M::wiBPpFgk_W
F51 P10Hq2Z KC2018 04 17ISj+!(C;kSDGIht=\q`$i6u5#@N4D[Xf
seeZDcu`.N*/u-QI%4te
H21 P10Hq2Z KC2018 04 17lcVAR3bH`aZ(:Fki`qEcFRno1(iQO,ap^t2vrWNbKtS;5-fZJ3f?
H21 P10Hq2Z KC2018 04 17\x!OP26!Kd3ia`Irh1w=?8RLY2wlxp(vq.%uo#FZjiu*9Gs
NEOCPH21 P10Hq2Z ^C2018 04 17.59885 17 58 54.033+00 19 06.17 21.0 GUNEOCP568 P10Hq2Z ^C2018 04 17.59980 17 58 54.122+00 19 06.47 21.3 GUNEOCP568 P10Hq2Z ^C2018 04 17.60074 17 58 54.216+00 19 06.92 21.4 GUNEOCP568 P10Hq2Z ^C2018 04 17.60171 17 58 54.304+00 19 07.15 21.2 GUNEOCP568 P10Hq2Z ^C2018 04 17.60266 17 58 54.396+00 19 07.45 21.3 GUNEOCP568 P10Hq2Z ^C2018 04 17.60550 17 58 54.671+00 19 08.50 21.0 GUNEOCP568 P10Hq2Z ^C2018 04 17.60645 17 58 54.761+00 19 08.87 21.2 GUNEOCP568 P10Hq2Z C2018 04 18.04338 17 59 39.20 +00 21 27.5 21.1 VSNEOCP033 P10Hq2Z C2018 04 18.04713 17 59 39.55 +00 21 28.2 20.9 VSNEOCP033 P10Hq2Z C2018 04 18.05089 17 59 39.94 +00 21 29.5 20.6 VSNEOCP033 P10Hq2Z C2018 04 18.05464 17 59 40.28 +00 21 30.8 20.8 VSNEOCP033 P10Hq2Z C2018 04 18.05840 17 59 40.66 +00 21 32.2 20.8 VSNEOCP033 P10Hq2Z C2018 04 18.06215 17 59 41.02 +00 21 33.6 20.8 VSNEOCP033 P10Hq2Z C2018 04 18.11013 17 59 45.63 +00 21 49.1 20.6 VSNEOCP033 P10Hq2Z C2018 04 18.11388 17 59 45.98 +00 21 50.1 21.1 VSNEOCP033 P10Hq2Z C2018 04 18.11764 17 59 46.37 +00 21 51.7 20.8 VSNEOCP033 Station data: (033) Karl Schwarzschild Observatory, Tautenburg (N50.980140 E11.711240) Germany. 1.3-m Schmidt. (568) Mauna Kea (N19.826116 W155.472200) US/Hawaii. Observer D. J. Tholen. 2.24-m University of Hawaii reflector. (F51) Pan-STARRS 1, Haleakala (N20.707235 W156.255910) US/Hawaii. Observers N. Primak, A. Schultz, S. Watters, J. Thiel, T. Goggia. Measurer PS1 Science Consortium. 1.8-m Ritchey-Chrétien + CCD. (H21) Astronomical Research Observatory, Westfield (N39.483057 W87.968270) US/Illinois. 0.76-m f/3.0 astrograph + CCD. Orbital elements: P10Hq2Z Perihelion 2018 Mar 26.578922 TT = 13:53:38 (JD 2458204.078922) Epoch 2018 Apr 18.0 TT = JDT 2458226.5 Earth MOID: 0.4280 Ma: 0.0356 M 4.90562 (J2000 ecliptic) n 0.21879540 Peri. 79.06931 a 2.72757841 Node 133.81707 e 0.4952422 Incl. 10.57801 P 4.50 H 20.0 G 0.15 q 1.37676641 Q 4.07839041 From 22 observations 2018 Apr. 16-18 (37.0 hr); mean residual 0".30
Residuals in arcseconds: 180416 F51 .11+ .20- 180417 568 .01+ .02+ 180418 033 .05+ .31- 180416 F51 .03- .27- 180417 568 .07- .08- 180418 033 .27+ .15- 180416 F51 .15+ .52- 180417 568 .06- .09- 180418 033 .21+ .02+ 180417 H21 .03- .63+ 180417 568 .03- .01+ 180418 033 .27- .27- 180417 H21 .01+ 1.0+ 180417 568 .05- .06+ 180418 033 .45- .50- 180417 H21 .39- .64+ 180418 033 .27+ .10+ 180418 033 .04- .14- 180417 568 .02- .10- 180418 033 .05+ .43- 180417 568 .05- .12- 180418 033 .42+ .37- Ephemerides (geocentric): Date (UTC) HH RA Dec delta r elong mag ---- -- -- -- ------------ ------------ ------ ------ ----- --- 2018 04 18 16 18 00 40.792 +00 25 01.54 .63046 1.3971 115.5 21.3 2018 04 18 17 18 00 44.895 +00 25 15.01 .63036 1.3972 115.6 21.3 2018 04 18 18 18 00 48.992 +00 25 28.46 .63027 1.3973 115.6 21.3 2018 04 18 19 18 00 53.085 +00 25 41.89 .63017 1.3973 115.6 21.3 2018 04 18 20 18 00 57.173 +00 25 55.31 .63008 1.3974 115.6 21.3 2018 04 18 21 18 01 01.255 +00 26 08.72 .62998 1.3975 115.6 21.3 2018 04 18 22 18 01 05.333 +00 26 22.10 .62989 1.3976 115.7 21.3 2018 04 18 23 18 01 09.406 +00 26 35.47 .62979 1.3976 115.7 21.3 2018 04 19 00 18 01 13.474 +00 26 48.82 .62970 1.3977 115.7 21.3 2018 04 19 01 18 01 17.537 +00 27 02.16 .62960 1.3978 115.7 21.3 2018 04 19 02 18 01 21.595 +00 27 15.48 .62951 1.3978 115.7 21.3 2018 04 19 03 18 01 25.648 +00 27 28.78 .62941 1.3979 115.8 21.3 2018 04 19 04 18 01 29.696 +00 27 42.06 .62932 1.3980 115.8 21.3 2018 04 19 05 18 01 33.739 +00 27 55.33 .62922 1.3981 115.8 21.3 2018 04 19 06 18 01 37.778 +00 28 08.58 .62913 1.3981 115.8 21.3 2018 04 19 07 18 01 41.811 +00 28 21.82 .62903 1.3982 115.8 21.3 2018 04 19 08 18 01 45.839 +00 28 35.03 .62894 1.3983 115.9 21.3 2018 04 19 09 18 01 49.862 +00 28 48.23 .62884 1.3984 115.9 21.3 2018 04 19 10 18 01 53.881 +00 29 01.41 .62875 1.3984 115.9 21.3 2018 04 19 11 18 01 57.894 +00 29 14.58 .62866 1.3985 115.9 21.3 2018 04 19 12 18 02 01.902 +00 29 27.73 .62856 1.3986 115.9 21.3 2018 04 19 13 18 02 05.906 +00 29 40.86 .62847 1.3987 115.9 21.3 2018 04 19 14 18 02 09.904 +00 29 53.97 .62838 1.3987 116.0 21.3 2018 04 19 15 18 02 13.898 +00 30 07.07 .62828 1.3988 116.0 21.3 2018 04 19 16 18 02 17.886 +00 30 20.15 .62819 1.3989 116.0 21.3 2018 04 19 17 18 02 21.870 +00 30 33.21 .62809 1.3990 116.0 21.3 2018 04 19 18 18 02 25.848 +00 30 46.25 .62800 1.3990 116.0 21.3 2018 04 19 19 18 02 29.822 +00 30 59.28 .62791 1.3991 116.1 21.3 2018 04 19 20 18 02 33.790 +00 31 12.28 .62781 1.3992 116.1 21.3 2018 04 19 21 18 02 37.754 +00 31 25.27 .62772 1.3993 116.1 21.3 2018 04 19 22 18 02 41.712 +00 31 38.25 .62763 1.3993 116.1 21.3 2018 04 19 23 18 02 45.666 +00 31 51.20 .62753 1.3994 116.1 21.3 2018 04 20 00 18 02 49.615 +00 32 04.14 .62744 1.3995 116.2 21.3 2018 04 20 01 18 02 53.558 +00 32 17.06 .62735 1.3996 116.2 21.3 2018 04 20 02 18 02 57.497 +00 32 29.96 .62726 1.3997 116.2 21.3 2018 04 20 03 18 03 01.431 +00 32 42.84 .62716 1.3997 116.2 21.3 2018 04 20 04 18 03 05.359 +00 32 55.71 .62707 1.3998 116.2 21.3 2018 04 20 05 18 03 09.283 +00 33 08.56 .62698 1.3999 116.3 21.3 2018 04 20 06 18 03 13.202 +00 33 21.39 .62689 1.4000 116.3 21.3 2018 04 20 07 18 03 17.115 +00 33 34.20 .62679 1.4000 116.3 21.3 2018 04 20 08 18 03 21.024 +00 33 46.99 .62670 1.4001 116.3 21.3 2018 04 20 09 18 03 24.928 +00 33 59.77 .62661 1.4002 116.3 21.3 2018 04 20 10 18 03 28.826 +00 34 12.52 .62652 1.4003 116.4 21.3 2018 04 20 11 18 03 32.720 +00 34 25.26 .62642 1.4003 116.4 21.3 2018 04 20 12 18 03 36.609 +00 34 37.98 .62633 1.4004 116.4 21.3 2018 04 20 13 18 03 40.492 +00 34 50.68 .62624 1.4005 116.4 21.3 2018 04 20 14 18 03 44.371 +00 35 03.37 .62615 1.4006 116.4 21.3 2018 04 20 15 18 03 48.245 +00 35 16.03 .62606 1.4007 116.5 21.3